Location: Piotrkow Trybunalski
(51.4000°N, 19.6830°E)
Time: 08:24:54
(UTC+02:00)

STRAND 1 - Visible Passes

Search period start: 20 July 2024 00:00
Search period end: 30 July 2024 00:00
Orbit: 764 x 778 km, 98.4° (Epoch: 19 July)

Date Brightness Start Highest point End Pass type
(mag) Time Alt. Az. Time Alt. Az. Time Alt. Az.
20 Jul ? 21:28:08 10° NNW 21:30:10 12° NW 21:32:12 10° WNW visible
21 Jul ? 03:53:57 10° ENE 03:55:34 11° NE 03:57:10 10° NNE visible
23 Jul ? 21:21:58 10° NNW 21:24:23 14° NW 21:26:49 10° W visible
24 Jul ? 03:48:55 10° ENE 03:49:47 10° NE 03:50:38 10° NE visible
26 Jul ? 04:15:20 10° E 04:18:25 16° NE 04:21:31 10° NNE visible
26 Jul ? 21:15:50 10° NNW 21:18:35 15° NW 21:21:19 10° W visible
29 Jul ? 04:09:47 10° E 04:12:36 15° NE 04:15:25 10° NNE visible
29 Jul ? 21:09:43 10° NNW 21:12:45 16° NW 21:15:47 10° W visible
